[[{"header":{"parameterUnit":"m.s-1","parameterCategory":1,"la1":30.2991,"la2":30.254,"lo1":-89.0895,"lo2":-89.0444,"dy":0.0017,"dx":0.0017,"nx":28,"ny":28,"refTime":"2023-08-21T21:00:00:Z","depth":0,"parameterNumber":2,"parameterNumberName":"U-component_of_WINDS"},"data":[0,0,0,0,0,0,0,0,0,0,0,0,0,0,0,0,0,0,0,0,0,0,0,0,0,0,0,0,0,0,0,0,0,0,0,0,0,0,0,0,0,0,0,0,0,0,0,0,0,0,0,0,0,0,0,0,0,0,-1.5207,-1.5206,0,-1.5058,-1.5056,-1.5054,-1.4955,-1.4954,-1.4953,-1.4953,-1.4801,-1.4797,-1.4794,0,0,0,0,0,0,0,0,0,0,0,0,0,-1.5409,-1.5406,-1.5207,-1.5205,-1.5204,-1.5058,-1.5056,-1.5054,-1.4955,-1.4954,-1.4953,-1.4952,-1.4802,-1.4798,-1.4794,0,0,0,0,0,0,0,0,0,0,0,0,0,-1.5297,-1.5405,-1.5208,-1.5137,-1.5129,-1.5058,-1.5056,-1.5053,-1.4955,-1.4954,-1.4953,-1.4952,-1.4803,-1.4798,-1.4793,-1.4782,0,0,-1.4777,-1.4775,0,0,0,0,0,0,0,0,-1.5303,-1.5289,-1.5149,-1.5141,-1.5132,-1.5024,-1.5071,-1.4962,-1.4955,-1.5021,-1.4953,-1.4952,-1.4876,-1.4865,-1.4839,-1.4774,-1.4768,-1.4777,-1.4774,-1.4772,-1.477,0,0,0,0,0,0,0,-1.5311,-1.5295,-1.5148,-1.5147,-1.5137,-1.5113,-1.5096,-1.505,-1.4956,-1.5015,-1.5008,-1.4991,-1.4871,-1.4844,-1.4834,-1.4766,-1.4777,-1.4772,-1.4769,-1.4767,-1.4686,-1.4687,0,0,0,0,0,0,-1.533,-1.5302,-1.5153,-1.5144,-1.5217,-1.511,-1.5091,-1.506,-1.4956,-1.4939,-1.4992,-1.4987,-1.4853,-1.4841,-1.4829,-1.4809,-1.4772,-1.4767,-1.4764,-1.4685,-1.4686,-1.4687,0,0,0,0,0,0,-1.5335,-1.5317,-1.5159,-1.5221,-1.5199,-1.5108,-1.5073,-1.5057,-1.503,-1.4939,-1.4922,-1.4982,-1.4852,-1.4836,-1.4794,-1.4803,-1.4764,-1.476,-1.4684,-1.4686,-1.4687,-1.4771,0,0,0,0,0,0,-1.5341,-1.532,-1.5314,-1.5221,-1.5196,-1.5127,-1.5074,-1.5055,-1.5021,-1.5013,-1.4924,-1.4909,-1.485,-1.4803,-1.4789,-1.4795,-1.4756,-1.4683,-1.4685,-1.4686,-1.4767,-1.4775,-1.4782,0,0,0,0,0,-1.5348,-1.5344,-1.5314,-1.5297,-1.5187,-1.5127,-1.5113,-1.5045,-1.5022,-1.5016,-1.4958,-1.4911,-1.4804,-1.4799,-1.4783,-1.4788,-1.4682,-1.4684,-1.4686,-1.4764,-1.4773,-1.4782,0,0,0,0,0,0,-1.5439,-1.533,-1.5296,-1.5261,-1.5205,-1.5111,-1.5101,-1.5057,-1.5006,-1.5,-1.4918,-1.4899,-1.4866,-1.4822,-1.4819,-1.4772,-1.4738,-1.4737,-1.4802,-1.481,-1.4818,-1.4829,-1.4752,0,0,0,0,0,-1.5456,-1.5416,-1.5323,-1.5301,-1.5274,-1.5193,-1.5164,-1.5117,-1.5055,-1.503,-1.4968,-1.4911,-1.4864,-1.4834,-1.4786,-1.476,-1.474,-1.4755,-1.4763,-1.477,-1.477,-1.4754,-1.4761,-1.4694,-1.4694,-1.4694,0,0,-1.5488,-1.5424,-1.5404,-1.5318,-1.5268,-1.523,-1.5173,-1.5134,-1.5105,-1.5024,-1.4981,-1.4935,-1.4864,-1.4831,-1.4813,-1.4793,-1.4784,-1.4772,-1.4778,-1.4775,-1.4757,-1.4764,-1.4769,-1.4696,-1.4695,-1.4695,0,0,-1.5528,-1.5475,-1.5452,-1.5403,-1.5329,-1.5275,-1.527,-1.5182,-1.5148,-1.5104,-1.5043,-1.5007,-1.4928,-1.4881,-1.4846,-1.487,-1.4827,-1.4857,-1.4896,-1.4882,-1.4887,-1.4892,-1.4902,-1.4906,-1.4857,-1.4858,-1.4858,0,-1.5579,-1.5518,-1.5445,-1.541,-1.5375,-1.53,-1.5276,-1.5233,-1.5147,-1.5124,-1.5103,-1.5003,-1.4951,-1.4906,-1.4912,-1.4886,-1.4879,-1.4867,-1.4892,-1.4896,-1.4899,-1.4907,-1.4911,-1.4862,-1.4861,-1.4861,-1.4861,0,-1.5584,-1.5543,-1.5533,-1.5452,-1.5415,-1.5386,-1.531,-1.5282,-1.5238,-1.5187,-1.5144,-1.5078,-1.5016,-1.5001,-1.4958,-1.4951,-1.4941,-1.4908,-1.4872,-1.4911,-1.4918,-1.492,-1.4868,-1.4867,-1.4865,-1.4864,0,0,-1.5677,-1.5557,-1.5554,-1.5517,-1.543,-1.5397,-1.5366,-1.5305,-1.5283,-1.5226,-1.5198,-1.5134,-1.5102,-1.5063,-1.5014,-1.5002,-1.5027,-1.4969,-1.4967,-1.4984,-1.5017,-1.5044,-1.5049,-1.4997,-1.4997,-1.4998,-1.5023,0,-1.5705,-1.5643,-1.5578,-1.554,-1.5502,-1.543,-1.5403,-1.5347,-1.5299,-1.526,-1.5206,-1.5162,-1.5123,-1.51,-1.5084,-1.5027,-1.5033,-1.5024,-1.4972,-1.4971,-1.4993,-1.5052,-1.508,-1.5107,-1.5025,-1.5026,-1.5026,0,-1.5729,-1.5676,-1.5635,-1.5552,-1.5534,-1.551,-1.545,-1.5413,-1.5349,-1.5315,-1.5273,-1.522,-1.5185,-1.5153,-1.5103,-1.5099,-1.5073,-1.5043,-1.5042,-1.5035,-1.5002,-1.5048,-1.5114,-1.5119,-1.5029,-1.5029,-1.5029,0,-1.5802,-1.5721,-1.5686,-1.5656,-1.5559,-1.5544,-1.5503,-1.5438,-1.5406,-1.5353,-1.5332,-1.5276,-1.5246,-1.5205,-1.514,-1.5122,-1.5098,-1.506,-1.5069,-1.5071,-1.5068,-1.5069,-1.5132,-1.505,-1.505,-1.505,-1.505,0,-1.5841,-1.5819,-1.5718,-1.5696,-1.567,-1.5595,-1.5571,-1.5523,-1.5466,-1.5435,-1.537,-1.5342,-1.5257,-1.522,-1.5169,-1.5137,-1.5123,-1.5095,-1.5082,-1.5102,-1.5105,-1.5084,-1.5081,-1.5051,-1.5051,-1.505,-1.505,0,-1.5919,-1.585,-1.5807,-1.5719,-1.5696,-1.5681,-1.5606,-1.5583,-1.5531,-1.5493,-1.5479,-1.5398,-1.5351,-1.5282,-1.5214,-1.5179,-1.5155,-1.5133,-1.5177,-1.517,-1.5183,-1.5184,-1.5236,-1.524,-1.5155,-1.5156,-1.5157,0,-1.5948,-1.5929,-1.5839,-1.5814,-1.5775,-1.5734,-1.5702,-1.5628,-1.5597,-1.5523,-1.551,-1.5457,-1.5411,-1.534,-1.5275,-1.5223,-1.52,-1.5222,-1.5192,-1.5213,-1.5202,-1.5205,-1.5203,-1.523,-1.5231,-1.5232,-1.5233,0,-1.6008,-1.5976,-1.5931,-1.5875,-1.5837,-1.579,-1.5739,-1.5722,-1.5637,-1.5606,-1.5556,-1.5521,-1.5452,-1.5402,-1.5341,-1.5299,-1.5253,-1.5243,-1.5243,-1.5263,-1.529,-1.5277,-1.5198,-1.5242,-1.5241,-1.5241,-1.524,-1.524,-1.6063,-1.6044,-1.5978,-1.5931,-1.5885,-1.5839,-1.5814,-1.5759,-1.5717,-1.5655,-1.5614,-1.5567,-1.5505,-1.5419,-1.538,-1.5343,-1.5324,-1.5323,-1.5323,-1.5324,-1.5332,-1.5295,-1.5332,-1.5332,-1.5331,-1.5331,-1.5331,0,-1.6121,-1.6075,-1.6033,-1.5964,-1.5927,-1.5886,-1.5828,-1.58,-1.576,-1.5706,-1.5662,-1.5607,-1.5558,-1.5491,-1.5437,-1.5421,-1.5399,-1.541,-1.5411,-1.5402,-1.5352,-1.5358,-1.5429,-1.5429,-1.5429,-1.5429,-1.5429,-1.5429,-1.6147,-1.6112,-1.6072,-1.6015,-1.5969,-1.5923,-1.5894,-1.5852,-1.5809,-1.575,-1.5709,-1.5665,-1.5606,-1.5547,-1.5501,-1.5483,-1.5467,-1.5485,-1.546,-1.5415,-1.5406,-1.5397,-1.5403,-1.5482,-1.5482,-1.5514,-1.5514,-1.5514]},{"header":{"parameterUnit":"m.s-1","parameterCategory":1,"la1":30.2991,"la2":30.254,"lo1":-89.0895,"lo2":-89.0444,"dy":0.0017,"dx":0.0017,"nx":28,"ny":28,"refTime":"2023-08-21T21:00:00:Z","depth":0,"parameterNumber":3,"parameterNumberName":"V-component_of_WINDS"},"data":[0,0,0,0,0,0,0,0,0,0,0,0,0,0,0,0,0,0,0,0,0,0,0,0,0,0,0,0,0,0,0,0,0,0,0,0,0,0,0,0,0,0,0,0,0,0,0,0,0,0,0,0,0,0,0,0,0,0,1.2131,1.2131,0,1.2096,1.2096,1.2096,1.2101,1.2102,1.2102,1.2103,1.2063,1.2062,1.206,0,0,0,0,0,0,0,0,0,0,0,0,0,1.22,1.2199,1.2131,1.2131,1.2131,1.2097,1.2096,1.2096,1.2101,1.2102,1.2102,1.2103,1.2064,1.2062,1.206,0,0,0,0,0,0,0,0,0,0,0,0,0,1.2168,1.2198,1.2131,1.2129,1.2129,1.2097,1.2096,1.2095,1.2101,1.2102,1.2103,1.2104,1.2064,1.2062,1.206,1.2026,0,0,1.2052,1.2051,0,0,0,0,0,0,0,0,1.217,1.2165,1.213,1.2129,1.2129,1.2104,1.2106,1.2072,1.2101,1.2111,1.2103,1.2104,1.2076,1.2073,1.2064,1.2025,1.2023,1.2052,1.2051,1.2049,1.2049,0,0,0,0,0,0,0,1.2172,1.2167,1.2117,1.2129,1.2129,1.2129,1.2125,1.2099,1.2089,1.211,1.2111,1.2107,1.2076,1.2066,1.2063,1.2022,1.2052,1.205,1.2048,1.2047,1.1953,1.1952,0,0,0,0,0,0,1.2175,1.2169,1.2119,1.2116,1.2152,1.2127,1.2123,1.2111,1.2089,1.2087,1.2106,1.2107,1.207,1.2066,1.2062,1.202,1.205,1.2047,1.2046,1.1954,1.1953,1.1952,0,0,0,0,0,0,1.2177,1.2171,1.212,1.2143,1.2136,1.2125,1.2111,1.211,1.21,1.2086,1.2084,1.2098,1.207,1.2065,1.2035,1.2019,1.2046,1.2044,1.1955,1.1954,1.1952,1.1938,0,0,0,0,0,0,1.2179,1.2171,1.2159,1.2142,1.2135,1.2095,1.211,1.2108,1.2097,1.2098,1.2078,1.2076,1.2071,1.2039,1.2033,1.2016,1.2042,1.1957,1.1955,1.1953,1.1939,1.1936,1.1933,0,0,0,0,0,1.2181,1.2156,1.2158,1.2152,1.212,1.2094,1.209,1.2086,1.2095,1.2082,1.2073,1.2076,1.2022,1.2036,1.2029,1.2011,1.1958,1.1955,1.1953,1.1941,1.1936,1.1933,0,0,0,0,0,0,1.2169,1.2153,1.2156,1.2125,1.2111,1.2095,1.2078,1.2081,1.2063,1.2065,1.2059,1.2055,1.2024,1.2015,1.203,1.1978,1.1991,1.1987,1.1984,1.198,1.1977,1.1978,1.204,0,0,0,0,0,1.2163,1.2145,1.2132,1.2105,1.2098,1.209,1.2078,1.2077,1.2061,1.2055,1.2044,1.2028,1.2007,1.1993,1.1974,1.1939,1.1934,1.1924,1.192,1.1918,1.1913,1.1893,1.1888,1.1944,1.1944,1.1944,0,0,1.215,1.2139,1.2127,1.2102,1.2091,1.2071,1.2084,1.2062,1.2047,1.2051,1.2022,1.2014,1.1996,1.1963,1.1948,1.1954,1.1897,1.1915,1.1912,1.191,1.189,1.1885,1.188,1.1943,1.1943,1.1943,0,0,1.2115,1.2105,1.2082,1.2071,1.2055,1.205,1.2044,1.2028,1.2023,1.1994,1.1997,1.1978,1.1943,1.193,1.1919,1.188,1.1882,1.1874,1.1855,1.1835,1.1831,1.1827,1.1811,1.1806,1.1871,1.1871,1.1871,0,1.2099,1.207,1.2069,1.2047,1.2035,1.204,1.2016,1.2005,1.1983,1.1974,1.1982,1.1938,1.1927,1.1891,1.1881,1.1873,1.1865,1.1875,1.1832,1.1828,1.1824,1.1809,1.1804,1.187,1.187,1.187,1.187,0,1.2051,1.2031,1.2014,1.1993,1.198,1.1957,1.1952,1.1938,1.1938,1.1932,1.1903,1.1889,1.1867,1.1859,1.1858,1.1822,1.1826,1.1834,1.1846,1.1818,1.1803,1.1798,1.1868,1.1869,1.1869,1.1869,0,0,1.2005,1.1986,1.1979,1.197,1.1953,1.1937,1.1914,1.1893,1.1881,1.1866,1.1845,1.1817,1.1823,1.181,1.1808,1.1792,1.176,1.1801,1.18,1.1792,1.1718,1.1711,1.1705,1.1763,1.1762,1.1761,1.1719,0,1.1967,1.1927,1.1926,1.1888,1.1869,1.1874,1.1854,1.1841,1.1835,1.1817,1.181,1.1789,1.18,1.1793,1.1777,1.1767,1.1745,1.1771,1.1741,1.174,1.1743,1.1697,1.169,1.1651,1.1714,1.1713,1.1712,0,1.1916,1.19,1.1861,1.1847,1.1839,1.1821,1.1802,1.1785,1.1771,1.1767,1.1754,1.1755,1.173,1.1747,1.1712,1.1729,1.1718,1.1712,1.171,1.1705,1.1722,1.1688,1.1638,1.1631,1.1704,1.1704,1.1705,0,1.1883,1.1853,1.1825,1.1817,1.1801,1.1788,1.178,1.1767,1.1755,1.1738,1.173,1.171,1.1699,1.1683,1.1678,1.1691,1.1643,1.1659,1.1638,1.1638,1.1625,1.1625,1.157,1.1622,1.1622,1.1622,1.1622,0,1.1838,1.1814,1.181,1.1793,1.1766,1.1765,1.1738,1.1731,1.1719,1.17,1.1704,1.1686,1.1682,1.1663,1.1659,1.163,1.1625,1.1621,1.1619,1.1619,1.1619,1.1609,1.161,1.1621,1.1621,1.1621,1.1622,0,1.1796,1.1793,1.1763,1.1751,1.1747,1.1727,1.1716,1.1699,1.1695,1.1671,1.1665,1.1657,1.1635,1.163,1.1603,1.16,1.1565,1.1568,1.157,1.1569,1.1547,1.1548,1.148,1.1471,1.1532,1.1532,1.1531,0,1.1766,1.1747,1.1734,1.1722,1.1714,1.1695,1.1683,1.1682,1.1669,1.1651,1.1636,1.1615,1.1597,1.1561,1.1552,1.1531,1.1532,1.151,1.1529,1.1528,1.1529,1.1529,1.1526,1.1505,1.1505,1.1504,1.1504,0,1.1713,1.1713,1.1696,1.1678,1.1664,1.1649,1.1636,1.1626,1.1623,1.1608,1.1586,1.1573,1.1546,1.1524,1.1503,1.1495,1.1497,1.1499,1.1492,1.1489,1.149,1.1487,1.1557,1.1499,1.1499,1.15,1.15,1.15,1.1674,1.1657,1.1645,1.1626,1.1616,1.1604,1.1587,1.1581,1.1563,1.1542,1.1543,1.1518,1.1504,1.1478,1.1468,1.1448,1.1454,1.1445,1.1442,1.1439,1.1436,1.1496,1.1444,1.1444,1.1445,1.1445,1.1445,0,1.1619,1.1612,1.1595,1.1576,1.1561,1.1568,1.1554,1.154,1.1518,1.1506,1.1489,1.1463,1.1442,1.1433,1.1412,1.1398,1.1398,1.1392,1.1391,1.1389,1.1433,1.1439,1.1391,1.1391,1.1391,1.1391,1.1391,1.1391,1.1588,1.156,1.1559,1.1526,1.1519,1.1495,1.1486,1.1474,1.1464,1.1436,1.1419,1.1414,1.1402,1.138,1.1361,1.1359,1.135,1.1342,1.134,1.138,1.1386,1.1391,1.1397,1.134,1.134,1.1297,1.1296,1.1296]}]]